User: anonymous   Login
Location: Unspecified
(0.0000°N, 0.0000°E)
Time: 12:31:46
(UTC+02:00)
Language:

Iridium 4 Rocket - Orbit

View from above orbital plane
View from above orbital plane
View from above satellite
View from above satellite

Ground track
Ground track

The orbit data is extracted from the following two-line orbital elements,

1 24797U 97020F   16181.88809591  .00000180  00000-0  32457-4 0  9996
2 24797  86.8977 122.4196 0227685  52.2298   5.9893 14.43877514  7105
Epoch (UTC): 29 June 2016 21:18:51
Eccentricity: 0.0227685
inclination: 86.8977°
perigee height: 583 km
apogee height: 908 km
right ascension of ascending node: 122.4196°
argument of perigee: 52.2298°
revolutions per day: 14.43877514
mean anomaly at epoch: 5.9893°
orbit number at epoch: 710

The dashed part of the orbit path shows where the satellite is in the earth's shadow,  

DLR